Orebro current weather conditions

sailwx.info

Wind from 250 at 5 knots

Air temperature 4.0° C
Visibility: greater than 5.4 NM
Dewpoint -5.0° C

Last reported at 2017-Mar-23 18:20 UTC.
Time now 2017-Mar-23 20:02 UTC

Location: N 59°13' E 015°02'.
View on Google Maps.

See reports from other nearby stations

  
Tides and Currents Weather Stations Pressure Air Temp Water Temp Dewpoint Dewpoint Depression Visibility Wind Speed Wind Dir Waves Ship Positions
date/time (UTC)wind fromknots sea level pressurealtimeterstation pressurevisibilityair tempwater tempwave heightnotes
2017-Mar-23 18:20 250 5 5.4 4.0
2017-Mar-23 17:50 250 6 5.4 5.0
2017-Mar-23 17:20 240 7 5.4 5.0
2017-Mar-23 16:50 250 7 5.4 6.0
2017-Mar-23 16:20 260 9 5.4 7.0
2017-Mar-23 15:50 260 9 5.4 7.0
2017-Mar-23 15:20 250 11 5.4 8.0
2017-Mar-23 14:50 270 9 5.4 8.0
2017-Mar-23 14:20 270 12 5.4 8.0
2017-Mar-23 13:50 280 11 5.4 8.0
2017-Mar-23 13:20 270 11 5.4 8.0
2017-Mar-23 12:50 250 9 5.4 8.0
2017-Mar-23 12:20 270 13 5.4 7.0
2017-Mar-23 11:50 250 13 5.4 7.0
2017-Mar-23 11:20 270 13 5.4 7.0
2017-Mar-23 10:50 270 12 5.4 7.0
2017-Mar-23 10:20 270 13 5.4 6.0
2017-Mar-23 09:50 270 9 5.4 6.0
2017-Mar-23 09:20 260 7 5.4 5.0
2017-Mar-23 08:50 260 8 5.4 5.0
2017-Mar-23 08:20 220 8 5.4 4.0
2017-Mar-23 07:50 240 6 5.4 3.0
2017-Mar-23 07:20 250 6 5.4 2.0
2017-Mar-23 06:50 240 6 5.4 1.0
2017-Mar-23 06:20 240 6 5.4-0.0
2017-Mar-23 05:50 230 6 5.4-0.0
2017-Mar-23 05:20 230 6 5.4-1.0
2017-Mar-23 04:50 230 7 5.4-0.0
2017-Mar-23 03:50 240 6 5.4-0.0
2017-Mar-23 03:20 240 6 5.4-0.0
2017-Mar-23 02:50 240 7 5.4-0.0
2017-Mar-23 02:20 230 6 5.4-0.0
2017-Mar-23 01:50 230 6 5.4 1.0
2017-Mar-23 01:20 230 6 5.4 1.0
2017-Mar-23 00:50 240 6 5.4 1.0
2017-Mar-23 00:20 230 7 5.4 1.0
2017-Mar-22 23:50 230 6 5.4 1.0
2017-Mar-22 23:20 230 7 5.4 2.0
2017-Mar-22 22:50 240 7 5.4 2.0
2017-Mar-22 22:20 250 6 5.4 2.0
2017-Mar-22 21:50 240 6 5.4 3.0
2017-Mar-22 21:20 250 7 5.4 3.0
2017-Mar-22 20:50 250 8 5.4 4.0
2017-Mar-22 20:20 250 8 5.4 4.0
2017-Mar-22 19:50 260 9 5.4 4.0
2017-Mar-22 19:20 240 9 5.4 5.0
2017-Mar-22 18:50 250 9 5.4 5.0
2017-Mar-22 18:20 250 11 5.4 5.0
2017-Mar-22 17:50 250 11 5.4 6.0
2017-Mar-22 17:20 240 14 5.4 6.0
2017-Mar-22 16:50 240 17 5.4 7.0
2017-Mar-22 16:20 240 15 5.4 7.0
2017-Mar-22 15:50 240 15 5.4 8.0
2017-Mar-22 15:20 230 15 gusting 27 5.4 8.0
2017-Mar-22 14:50 250 15 gusting 26 5.4 8.0
2017-Mar-22 14:20 240 17 5.4 9.0
2017-Mar-22 13:50 250 17 gusting 27 5.4 9.0
2017-Mar-22 13:20 240 15 gusting 29 5.4 9.0
2017-Mar-22 12:50 240 14 5.4 8.0
2017-Mar-22 12:20 240 15 5.4 8.0
2017-Mar-22 11:50 230 15 5.4 8.0
2017-Mar-22 11:20 240 14 5.4 8.0
2017-Mar-22 10:50 240 14 5.4 7.0
2017-Mar-22 10:20 240 14 5.4 7.0
2017-Mar-22 09:50 230 12 5.4 6.0
2017-Mar-22 09:20 250 13 5.4 6.0
2017-Mar-22 08:50 250 14 5.4 6.0
2017-Mar-22 08:20 250 13 5.4 5.0
2017-Mar-22 07:50 250 13 5.4 5.0
2017-Mar-22 07:20 240 9 5.4 5.0
2017-Mar-22 06:50 240 13 5.4 4.0
2017-Mar-22 06:20 240 11 5.4 4.0 Light rain.
2017-Mar-22 05:50 230 13 5.4 4.0 Light drizzle.
2017-Mar-22 05:20 230 13 5.4 4.0 Light drizzle.
2017-Mar-22 04:50 220 13 5.4 4.0 Light drizzle.
2017-Mar-22 04:20 220 13 5.4 4.0 Light drizzle.
2017-Mar-22 03:50 240 13 5.4 3.0
2017-Mar-22 03:20 240 13 5.4 3.0 Light rain.
2017-Mar-22 02:50 230 14 5.4 3.0 Light drizzle.
2017-Mar-22 02:20 240 14 5.4 3.0 Drizzle.
2017-Mar-22 01:50 220 11 5.4 4.0 Light rain.
2017-Mar-22 01:20 230 14 5.4 4.0 Light drizzle.
2017-Mar-22 00:50 240 14 5.4 4.0 Drizzle.
2017-Mar-22 00:20 220 13 4.9 4.0 Drizzle.
2017-Mar-21 23:50 230 13 5.4 4.0
2017-Mar-21 23:20 240 11 5.4 4.0
2017-Mar-21 22:50 230 13 5.4 4.0 Light rain.
2017-Mar-21 22:20 240 14 5.4 4.0 Light drizzle.
2017-Mar-21 21:50 240 15 5.4 4.0 Drizzle.
2017-Mar-21 21:20 240 17 5.4 4.0
2017-Mar-21 20:50 240 19 5.4 5.0 Light drizzle.
2017-Mar-21 20:20 240 15 5.4 4.0 Light drizzle.